| time (UTC) | temp C | wind direction | speed KPH | gust KPH | rain 1hr cm | rain 24hr cm | rain mn cm | humidity % | barometer mb |
| 20260509024526 | 10 | 129 | 3.2 | 9.7 | 0.00 | 0.05 | 0.05 | 88 | 1008.5 |
| 20260509023029 | 11 | 139 | 3.2 | 6.4 | 0.00 | 0.05 | 0.05 | 86 | 1008.5 |
| 20260509021525 | 11 | 135 | 4.8 | 11.3 | 0.00 | 0.05 | 0.05 | 85 | 1008.5 |
| 20260509020026 | 11 | 155 | 4.8 | 11.3 | 0.00 | 0.05 | 0.05 | 84 | 1008.4 |
| 20260509014623 | 11 | 150 | 8.0 | 11.3 | 0.00 | 0.05 | 0.05 | 84 | 1008.4 |
| 20260509013034 | 11 | 128 | 4.8 | 8.0 | 0.00 | 0.05 | 0.05 | 81 | 1008.2 |
| 20260509011522 | 12 | 160 | 3.2 | 8.0 | 0.00 | 0.05 | 0.05 | 80 | 1008.1 |
| 20260509010021 | 12 | 151 | 1.6 | 6.4 | 0.00 | 0.05 | 0.05 | 77 | 1008.0 |
| 20260509004524 | 13 | 162 | 4.8 | 14.5 | 0.00 | 0.05 | 0.05 | 75 | 1007.9 |
| 20260509003021 | 13 | 133 | 3.2 | 6.4 | 0.00 | 0.05 | 0.05 | 71 | 1007.8 |
| 20260509001520 | 14 | 165 | 4.8 | 20.9 | 0.00 | 0.05 | 0.05 | 67 | 1007.8 |
| 20260509000019 | 15 | 191 | 8.0 | 17.7 | 0.00 | 0.05 | 0.05 | 62 | 1007.7 |
| 20260508234518 | 16 | 166 | 8.0 | 14.5 | 0.00 | 0.05 | 0.05 | 58 | 1007.7 |
| 20260508233016 | 16 | 221 | 3.2 | 14.5 | 0.00 | 0.05 | 0.05 | 54 | 1007.8 |
| 20260508231515 | 16 | 212 | 1.6 | 11.3 | 0.00 | 0.05 | 0.05 | 53 | 1007.8 |
| 20260508230034 | 16 | 173 | 6.4 | 17.7 | 0.00 | 0.05 | 0.05 | 53 | 1007.8 |
| 20260508224538 | 16 | 221 | 8.0 | 22.5 | 0.00 | 0.05 | 0.05 | 51 | 1007.9 |
| 20260508223024 | 16 | 217 | 9.7 | 20.9 | 0.00 | 0.05 | 0.05 | 48 | 1007.9 |
| 20260508221511 | 16 | 172 | 6.4 | 19.3 | 0.00 | 0.05 | 0.05 | 46 | 1008.0 |
| 20260508220011 | 16 | 166 | 12.9 | 20.9 | 0.00 | 0.05 | 0.05 | 46 | 1008.1 |
| 20260508214509 | 16 | 184 | 11.3 | 20.9 | 0.00 | 0.05 | 0.05 | 45 | 1008.1 |
| 20260508213009 | 16 | 177 | 11.3 | 22.5 | 0.00 | 0.05 | 0.05 | 44 | 1008.0 |
| 20260508211509 | 16 | 200 | 11.3 | 24.1 | 0.00 | 0.05 | 0.05 | 46 | 1008.1 |
| 20260508210005 | 16 | 240 | 11.3 | 19.3 | 0.00 | 0.05 | 0.05 | 43 | 1008.2 |
| 20260508204513 | 15 | 197 | 6.4 | 29.0 | 0.00 | 0.05 | 0.05 | 44 | 1008.5 |
| 20260508203002 | 16 | 191 | 9.7 | 20.9 | 0.00 | 0.05 | 0.05 | 46 | 1008.7 |
| 20260508201600 | 16 | 233 | 6.4 | 22.5 | 0.00 | 0.05 | 0.05 | 42 | 1008.9 |
| 20260508200100 | 15 | 250 | 12.9 | 24.1 | 0.00 | 0.05 | 0.05 | 44 | 1009.1 |
| 20260508194558 | 15 | 134 | 3.2 | 17.7 | 0.00 | 0.05 | 0.05 | 46 | 1009.3 |
| 20260508193128 | 16 | 242 | 6.4 | 20.9 | 0.00 | 0.05 | 0.05 | 41 | 1009.5 |
| 20260508191554 | 15 | 169 | 14.5 | 22.5 | 0.00 | 0.05 | 0.05 | 45 | 1009.5 |
| 20260508190053 | 15 | 238 | 11.3 | 22.5 | 0.00 | 0.05 | 0.05 | 36 | 1009.9 |
| 20260508184612 | 15 | 201 | 16.1 | 25.7 | 0.00 | 0.05 | 0.05 | 39 | 1010.0 |
| 20260508183047 | 15 | 211 | 14.5 | 25.7 | 0.00 | 0.05 | 0.05 | 35 | 1010.2 |
| 20260508181547 | 15 | 172 | 6.4 | 20.9 | 0.00 | 0.05 | 0.05 | 39 | 1010.4 |
| 20260508180050 | 15 | 220 | 16.1 | 24.1 | 0.00 | 0.05 | 0.05 | 36 | 1010.6 |
| 20260508174556 | 14 | 169 | 8.0 | 24.1 | 0.00 | 0.05 | 0.05 | 35 | 1010.9 |
| 20260508173038 | 14 | 278 | 3.2 | 19.3 | 0.00 | 0.05 | 0.05 | 39 | 1011.2 |
| 20260508171553 | 14 | 347 | 1.6 | 22.5 | 0.00 | 0.05 | 0.05 | 39 | 1011.4 |
| 20260508170038 | 13 | 299 | 6.4 | 11.3 | 0.00 | 0.05 | 0.05 | 39 | 1011.8 |
| 20260508164537 | 13 | 175 | 9.7 | 25.7 | 0.00 | 0.05 | 0.05 | 39 | 1011.9 |
| 20260508163033 | 13 | 309 | 4.8 | 16.1 | 0.00 | 0.05 | 0.05 | 41 | 1011.9 |
| 20260508161539 | 12 | 253 | 4.8 | 16.1 | 0.00 | 0.05 | 0.05 | 43 | 1012.1 |
| 20260508160032 | 13 | 326 | 8.0 | 12.9 | 0.00 | 0.05 | 0.05 | 45 | 1012.1 |
| 20260508154525 | 12 | 126 | 3.2 | 14.5 | 0.00 | 0.05 | 0.05 | 44 | 1012.3 |
| 20260508153033 | 12 | 345 | 3.2 | 12.9 | 0.00 | 0.05 | 0.05 | 45 | 1012.3 |
| 20260508151531 | 12 | 243 | 9.7 | 16.1 | 0.00 | 0.05 | 0.05 | 47 | 1012.5 |
| 20260508150016 | 11 | 283 | 6.4 | 17.7 | 0.00 | 0.05 | 0.05 | 58 | 1012.5 |
| 20260508144514 | 11 | 252 | 6.4 | 16.1 | 0.00 | 0.05 | 0.05 | 51 | 1012.7 |
| 20260508143011 | 11 | 255 | 3.2 | 11.3 | 0.00 | 0.05 | 0.05 | 55 | 1012.8 |
| 20260508141512 | 10 | 191 | 4.8 | 11.3 | 0.00 | 0.05 | 0.05 | 57 | 1012.9 |
| 20260508140008 | 10 | 263 | 4.8 | 11.3 | 0.00 | 0.05 | 0.05 | 60 | 1013.0 |
| 20260508134506 | 10 | 290 | 3.2 | 8.0 | 0.00 | 0.05 | 0.05 | 63 | 1012.9 |
| 20260508133113 | 10 | 207 | 1.6 | 8.0 | 0.00 | 0.05 | 0.05 | 68 | 1013.2 |
| 20260508131601 | 8 | 207 | 6.4 | 9.7 | 0.00 | 0.05 | 0.05 | 69 | 1013.1 |
| 20260508130058 | 8 | 215 | 4.8 | 11.3 | 0.00 | 0.05 | 0.05 | 73 | 1013.2 |
| 20260508124548 | 8 | 231 | 3.2 | 6.4 | 0.00 | 0.05 | 0.05 | 78 | 1013.1 |
| 20260508123044 | 7 | 269 | 3.2 | 6.4 | 0.00 | 0.05 | 0.05 | 82 | 1012.7 |
| 20260508121541 | 6 | 269 | 0.0 | 4.8 | 0.00 | 0.05 | 0.05 | 87 | 1012.6 |
| 20260508120043 | 5 | 268 | 0.0 | 1.6 | 0.00 | 0.05 | 0.05 | 91 | 1012.6 |
| 20260508114534 | 5 | 268 | 0.0 | 0.0 | 0.00 | 0.05 | 0.05 | 91 | 1012.4 |
| 20260508113037 | 3 | 268 | 0.0 | 0.0 | 0.00 | 0.05 | 0.05 | 91 | 1012.4 |
| 20260508111532 | 3 | 268 | 0.0 | 0.0 | 0.00 | 0.05 | 0.05 | 91 | 1012.3 |
| 20260508110032 | 2 | 268 | 0.0 | 0.0 | 0.00 | 0.05 | 0.05 | 92 | 1012.3 |
| 20260508104530 | 1 | 268 | 0.0 | 0.0 | 0.00 | 0.05 | 0.05 | 92 | 1012.2 |
| 20260508103029 | 0 | 268 | 0.0 | 1.6 | 0.00 | 0.05 | 0.05 | 92 | 1012.3 |
| 20260508101527 | 1 | 268 | 0.0 | 0.0 | 0.00 | 0.05 | 0.05 | 92 | 1012.3 |
| 20260508100023 | 1 | 268 | 0.0 | 0.0 | 0.00 | 0.05 | 0.05 | 91 | 1012.4 |
| 20260508094521 | 1 | 268 | 0.0 | 1.6 | 0.00 | 0.05 | 0.05 | 91 | 1012.4 |
| 20260508093019 | 2 | 268 | 0.0 | 1.6 | 0.00 | 0.05 | 0.05 | 91 | 1012.4 |
| 20260508091528 | 2 | 268 | 0.0 | 1.6 | 0.00 | 0.05 | 0.05 | 91 | 1012.4 |
| 20260508090015 | 3 | 268 | 0.0 | 1.6 | 0.00 | 0.05 | 0.05 | 90 | 1012.5 |
| 20260508084509 | 3 | 268 | 0.0 | 1.6 | 0.03 | 0.05 | 0.05 | 89 | 1012.4 |
| 20260508083018 | 3 | 268 | 0.0 | 3.2 | 0.05 | 0.05 | 0.05 | 90 | 1012.3 |
| 20260508081509 | 3 | 285 | 1.6 | 11.3 | 0.05 | 0.05 | 0.05 | 91 | 1012.4 |
| 20260508080005 | 3 | 188 | 0.0 | 4.8 | 0.05 | 0.05 | 0.05 | 91 | 1012.5 |
| 20260508074504 | 3 | 176 | 0.0 | 3.2 | 0.03 | 0.03 | 0.03 | 91 | 1012.3 |
| 20260508073003 | 3 | 176 | 0.0 | 0.0 | 0.00 | 0.00 | 0.00 | 90 | 1012.3 |
| 20260508071503 | 4 | 176 | 0.0 | 0.0 | 0.00 | 0.00 | 0.00 | 90 | 1012.5 |
| 20260508070101 | 4 | 172 | 1.6 | 6.4 | 0.00 | 0.00 | 0.00 | 90 | 1012.5 |
| 20260508070002 | 4 | 165 | 3.2 | 6.4 | 0.00 | 0.00 | 0.00 | 90 | 1012.5 |
| 20260508064556 | 4 | 146 | 1.6 | 6.4 | 0.00 | 0.00 | 0.00 | 90 | 1012.8 |
| 20260508063133 | 4 | 193 | 0.0 | 3.2 | 0.00 | 0.00 | 0.00 | 89 | 1013.0 |
| 20260508061554 | 4 | 194 | 0.0 | 3.2 | 0.00 | 0.00 | 0.00 | 89 | 1013.1 |
| 20260508060053 | 4 | 153 | 1.6 | 3.2 | 0.00 | 0.00 | 0.00 | 88 | 1013.1 |
| 20260508054550 | 3 | 33 | 0.0 | 1.6 | 0.00 | 0.00 | 0.00 | 87 | 1013.4 |
| 20260508053054 | 3 | 33 | 0.0 | 1.6 | 0.00 | 0.00 | 0.00 | 86 | 1013.3 |
| 20260508051607 | 4 | 33 | 0.0 | 0.0 | 0.00 | 0.00 | 0.00 | 86 | 1013.4 |
| 20260508050045 | 4 | 33 | 0.0 | 1.6 | 0.00 | 0.00 | 0.00 | 84 | 1013.2 |
| 20260508044545 | 4 | 33 | 0.0 | 4.8 | 0.00 | 0.00 | 0.00 | 84 | 1013.0 |
| 20260508043039 | 4 | 44 | 0.0 | 1.6 | 0.00 | 0.00 | 0.00 | 83 | 1012.9 |
| 20260508041535 | 4 | 44 | 0.0 | 1.6 | 0.00 | 0.00 | 0.00 | 82 | 1013.0 |
| 20260508040033 | 5 | 44 | 0.0 | 3.2 | 0.00 | 0.00 | 0.00 | 80 | 1013.0 |
| 20260508034532 | 5 | 44 | 0.0 | 4.8 | 0.00 | 0.00 | 0.00 | 77 | 1013.1 |
| 20260508033035 | 5 | 319 | 0.0 | 4.8 | 0.00 | 0.00 | 0.00 | 81 | 1013.1 |
| 20260508031530 | 5 | 41 | 0.0 | 3.2 | 0.00 | 0.00 | 0.00 | 78 | 1013.2 |
| 20260508030031 | 5 | 41 | 0.0 | 1.6 | 0.00 | 0.00 | 0.00 | 78 | 1012.9 |